Location: *
(17.3280°S, 114.7300°W)
Time: 06:45:35
(UTC+00:00)

NOSS 3-4 (A) - Pass Details

Date: 05 August 2020
Orbit: 886 x 1326 km, 63.4° (Epoch: 19 September)

Event Time Altitude Azimuth Distance (km) Brightness Sun altitude
Exits shadow 13:08:09 - 215° (SW) 2,960 5.6 -13.4°
Reaches altitude 10° 13:08:44 10° 216° (SW) 2,751 5.4 -13.3°
Maximum altitude 13:14:55 55° 292° (WNW) 1,102 3.5 -11.8°
Drops below altitude 10° 13:20:39 10° 9° (N) 2,553 6.0 -10.5°
Sets 13:23:08 0° 13° (NNE) 3,473 6.8 -9.9°
